Location: Pinhey's Point
(45.4411°N, 75.9539°W)
Time: 11:35:32
(UTC-04:00)

Iridium 65 - Visible Passes

Search period start: 26 April 2018 00:00
Search period end: 06 May 2018 00:00
Orbit: 776 x 779 km, 86.4° (Epoch: 26 April)

Date Brightness Start Highest point End Pass type
(mag) Time Alt. Az. Time Alt. Az. Time Alt. Az.
26 Apr 8.0 03:21:57 10° NNE 03:25:41 19° ENE 03:29:24 10° ESE visible
26 Apr 5.6 05:01:42 10° N 05:06:49 57° W 05:11:54 10° SSW visible
27 Apr 8.4 02:50:19 10° NE 02:51:44 11° ENE 02:53:08 10° E visible
27 Apr 5.6 04:28:04 10° N 04:33:20 82° E 04:38:33 10° S visible
28 Apr 6.5 03:54:41 10° N 03:59:44 46° E 04:04:44 10° SSE visible
29 Apr 7.5 03:21:36 10° NNE 03:26:00 27° ENE 03:30:22 10° SE visible
29 Apr 6.0 05:01:59 10° NNW 05:06:51 40° W 05:11:40 10° SSW visible
30 Apr 8.1 02:49:00 10° NE 02:52:07 16° ENE 02:55:13 10° ESE visible
30 Apr 5.5 04:28:13 10° N 04:33:26 71° W 04:38:36 10° S visible
01 May 5.9 03:54:41 10° N 03:59:54 66° E 04:05:05 10° SSE visible
02 May 6.9 03:21:24 10° NNE 03:26:15 37° E 03:31:04 10° SSE visible
02 May 6.5 05:02:23 10° NNW 05:06:49 29° W 05:11:14 10° SW visible
03 May 7.7 02:48:28 10° NNE 02:52:28 22° ENE 02:56:27 10° SE visible
03 May 5.8 04:28:27 10° NNW 04:33:30 50° W 04:38:30 10° SSW visible
04 May 8.2 02:16:20 10° NE 02:18:32 13° ENE 02:20:44 10° E visible
04 May 5.5 03:54:47 10° N 04:00:02 89° W 04:04:45 13° S visible
05 May 6.2 03:21:21 10° N 03:26:28 52° E 03:30:57 13° SSE visible
05 May 6.9 05:02:58 10° NNW 05:06:46 21° W 05:10:33 10° SW visible
